Regional Weather Roundup
Issued by NWS

Home | Current Version | Previous Version | Graphics & Text | Print | Product List | Glossary On
Versions: 1 2 3 4 5 6 7 8 9 10 11 12 13 14 15 16 17 18 19 20 21 22 23 24 25 26 27 28 29 30 31 32 33 34 35 36 37 38 39 40 41 42 43 44 45 46 47 48 49 50
000
ASUS43 KMPX 222301
RWRMN
WEATHER ROUNDUP FOR MINNESOTA
NATIONAL WEATHER SERVICE TWIN CITIES/CHANHASSEN MN
600 PM CDT SAT JUL 22 2017


NOTE: "FAIR" INDICATES FEW OR NO CLOUDS BELOW 12,000 FEET WITH NO
SIGNIFICANT WEATHER AND/OR OBSTRUCTIONS TO VISIBILITY. N/A MEANS
CURRENT SKY AND/OR WEATHER CONDITIONS ARE NOT AVAILABLE.

MNZ060>063-068>070-230000-
   Twin Cities Metro

CITY           SKY/WX    TMP DP  RH WIND       PRES   REMARKS
TWIN CITIES    PTSUNNY   89  63  41 NW13      29.81R HX  90
ST PAUL        MOSUNNY   87  63  44 N12G22    29.80S
CRYSTAL        MOSUNNY   88  60  38 N13       29.80S
BLAINE         MOSUNNY   88  61  40 NW12      29.81S
LAKEVILLE      SUNNY     84  64  51 NW14      29.82S
EDEN PRAIRIE   MOSUNNY   89  63  41 W12       29.81S HX  90
SOUTH ST PAUL  MOSUNNY   88  62  40 N10G17    29.80S
LAKE ELMO      FAIR      86  64  48 NW9       29.82S
$$
MNZ001>005-007-008-013>017-022>024-027-028-230000-
   Northwest Minnesota

CITY           SKY/WX    TMP DP  RH WIND       PRES   REMARKS
BEMIDJI        MOSUNNY   76  51  40 W16G26    29.85S
HALLOCK        PTSUNNY   64  61  88 N10G17    29.85R
ROSEAU         CLOUDY    70  63  78 NW10      29.82R
WARROAD        CLOUDY    70  63  78 W12G20    29.81R
CROOKSTON      PTSUNNY   75  57  53 NW15      29.85S
FOSSTON        MOSUNNY   75  54  46 W12G21    29.86S
DETROIT LAKES  SUNNY     79  54  41 NW15      29.89F
MOORHEAD       SUNNY     81  57  44 N6        29.86F
PARK RAPIDS    SUNNY     81  51  35 NW15G26   29.86F
MAHNOMEN       FAIR      77  57  51 W20       29.86F
$$
MNZ006-009>011-018-025>026-230000-
   North Central Minnesota

CITY           SKY/WX    TMP DP  RH WIND       PRES   REMARKS
BAUDETTE       MOSUNNY   72  57  59 W12       29.79S
FLAG ISLAND    CLOUDY    66  61  82 NW9       29.79R HAZE
INTL FALLS     SUNNY     77  56  48 W13G23    29.77R
WASKISH        PTSUNNY   77  61  57 W12G18    29.81S
BIG FORK       SUNNY     79  54  41 W7        29.81S
LONGVILLE      SUNNY     81  52  36 W8G18     29.84S
GRAND RAPIDS   SUNNY     80  57  45 NW13G18   29.83S
CRANE LAKE     PTSUNNY   72  61  68 CALM      29.78F
ORR            MOSUNNY   79  55  44 W6        29.76
COOK           SUNNY     81  55  41 W15       29.79S
WALKER         FAIR      78  53  40 W12G24    29.84S
$$
MNZ012-019>021-037-230000-
   Northeast Minnesota

CITY           SKY/WX    TMP DP  RH WIND       PRES   REMARKS
DULUTH         MOSUNNY   66  59  78 SE8       29.81F
ELY            PTSUNNY   64  61  88 CALM      29.80F
HIBBING        MOSUNNY   76  65  68 VRB7      29.79F
EVELETH        LGT RAIN  78  51  38 W10       29.81R
DULUTH HARBOR  MOSUNNY   63  57  82 NE9       29.82F
TWO HARBORS    MOSUNNY   66  57  72 E9        29.81F
SILVER BAY     MOSUNNY   63  55  77 E9        29.82S
GRAND MARAIS     N/A     58  52  80 E7        29.82F
G MARAIS ARPRT CLOUDY    61  54  77 NE6       29.86S
$$
MNZ029>031-032-039>041-046>048-054>057-064-230000-
   West Central Minnesota

CITY           SKY/WX    TMP DP  RH WIND       PRES   REMARKS
FERGUS FALLS   SUNNY     81  57  44 NW9       29.86F
WHEATON        SUNNY     82  57  42 N6        29.88F
MORRIS         SUNNY     86  61  42 N9        29.86F
ALEXANDRIA     SUNNY     82  60  47 NW16      29.90S
ELBOW LAKE     FAIR      80  60  51 W9        29.88F HAZE
WADENA         SUNNY     79  57  47 NW8       29.87S
GLENWOOD       SUNNY     82  61  47 NW13      29.89S
APPLETON       SUNNY     88  57  35 N9        29.86S
BENSON         SUNNY     84  63  48 N10       29.88S
ORTONVILLE     SUNNY     84  61  45 N10       29.87S
MADISON        SUNNY     90  61  37 N12       29.87S
WILLMAR        FAIR      86  64  48 NW13      29.88S
$$
MNZ033>034-036-042>043-049>051-058-059-230000-
   Central Minnesota

CITY           SKY/WX    TMP DP  RH WIND       PRES   REMARKS
ST CLOUD       MOSUNNY   85  65  51 NW10      29.83S
SAUK CENTRE    FAIR      83  62  50 NW14G20   29.87S
PAYNESVILLE    SUNNY     85  59  41 NW13G20   29.87S
AITKIN         SUNNY     81  52  36 W8G21     29.82S
PINE RIVER     SUNNY     81  54  39 NW8G17    29.88S
BRAINERD       SUNNY     82  53  36 W12       29.84S
STAPLES        SUNNY     81  52  36 NW14      29.86S
LONG PRAIRIE   FAIR      81  63  54 W13       29.88S
LITTLE FALLS   SUNNY     82  55  39 NW8       29.85S
LITCHFIELD     SUNNY     88  66  48 NW13G20   29.85S HX  90
BUFFALO        SUNNY     86  60  40 NW12      29.84S
MAPLE LAKE     MOSUNNY   87  66  49 NW8       29.85S
HUTCHINSON     MOSUNNY   85  68  56 NW10      29.86S
$$
MNZ037-044-045-052-053-230000-
   East Central Minnesota

CITY           SKY/WX    TMP DP  RH WIND       PRES   REMARKS
PRINCETON      SUNNY     88  63  42 W10G16    29.83S
MORA           MOSUNNY   81  63  54 NW9       29.83F
CAMBRIDGE      SUNNY     88  66  48 W8        29.81S HX  90
RUSH CITY      PTSUNNY   83  68  61 NW3       29.81F
MOOSE LAKE     PTSUNNY   81  64  57 CALM      29.79S
HINCKLEY       FAIR      84  64  51 W6        29.81S
CLOQUET        MOSUNNY   73  61  64 E3        29.81F
MCGREGOR       MOSUNNY   81  61  50 W15       29.82S
$$
MNZ071>073-080-081-089-090-097-098-230000-
   Southwest Minnesota

CITY           SKY/WX    TMP DP  RH WIND       PRES   REMARKS
MONTEVIDEO     SUNNY     91  66  43 NE10      29.87S HX  94
GRANITE FALLS  SUNNY     88  69  52 W7        29.88S HX  92
CANBY          SUNNY     92  50  24 W7        29.89S
MARSHALL       MOSUNNY   87  68  52 N7        29.88S HX  90
REDWOOD FALLS  SUNNY     87  65  47 NW9       29.86S
OLIVIA         SUNNY     86  66  51 NW10      29.86S
PIPESTONE      SUNNY     88  61  40 W8        29.93F
WINDOM         SUNNY     84  66  54 NW8       29.90S
WORTHINGTON    SUNNY     85  67  54 NW13      29.92S
JACKSON        SUNNY     82  68  61 NW14G20   29.91R
SLAYTON        MOSUNNY   83  68  61 W8        29.93S
$$
MNZ065>067-074>077-082>085-091>093-230000-
   South Central Minnesota

CITY           SKY/WX    TMP DP  RH WIND       PRES   REMARKS
MANKATO        MOSUNNY   85  69  58 NW13      29.85S
NEW ULM        SUNNY     84  68  58 NW9       29.86S
ST JAMES       SUNNY     84  72  65 W9        29.88S
FAIRMONT       MOSUNNY   84  73  69 NW13      29.87S HX  90
GLENCOE        MOSUNNY   86  70  58 NW10      29.84S HX  90
FARIBAULT      SUNNY     84  72  65 W12       29.84R
OWATONNA       RAIN      81  73  78 W8        29.85R
WASECA         MOSUNNY   82  70  65 NW9       29.86S
ALBERT LEA     SUNNY     84  72  65 W3        29.85F
$$
MNZ078>079-086>088-094>096-230000-
   Southeast Minnesota

CITY           SKY/WX    TMP DP  RH WIND       PRES   REMARKS
ROCHESTER      MOSUNNY   83  72  69 W8        29.84F
RED WING       PTSUNNY   81  64  57 CALM      29.79F
STANTON        MOSUNNY   85  71  62 W7        29.81S HX  91
DODGE CENTER   SUNNY     82  70  65 W8        29.85S
WINONA         SUNNY     84  68  58 CALM      29.80S
AUSTIN         MOSUNNY   82  70  65 NW5       29.85S
PRESTON        SUNNY     82  71  69 W6        29.85F
$$
ABBREVIATIONS USED IN REMARKS
   TC - TEMPERATURES IN CELSIUS
  WCI - WIND CHILL INDEX
   HX - HEAT INDEX
  VSB - VISIBILITY
$$



USA.gov is the U.S. government's official web portal to all federal, state and local government web resources and services.